Location: Ferma
(41.9500°N, 44.5167°E)
Time: 14:00:57
(UTC+00:00)

Meteor 1-11 - Pass Details

Date: 24 October 2021
Orbit: 841 x 886 km, 81.2° (Epoch: 07 December)

Event Time Altitude Azimuth Distance (km) Brightness Sun altitude
Rises 15:08:58 0° 351° (N) 3,412 7.4 -12.2°
Reaches altitude 10° 15:11:24 10° 353° (N) 2,477 6.7 -12.6°
Maximum altitude 15:17:01 75° 80° (E) 882 4.1 -13.7°
Drops below altitude 10° 15:22:39 10° 165° (SSE) 2,486 6.5 -14.7°
Sets 15:25:05 0° 167° (SSE) 3,425 7.3 -15.2°
